Regional Weather Roundup
Issued by NWS

Home | Current Version | Previous Version | Text Only | Print | Product List | Glossary On
Versions: 1 2 3 4 5 6 7 8 9 10 11 12 13 14 15 16 17 18 19 20 21 22 23 24 25 26 27 28 29 30 31 32 33 34 35 36 37 38 39 40 41 42 43 44 45 46 47 48 49 50
000
ASUS45 KABQ 200410
RWRNM
WEATHER ROUNDUP FOR NEW MEXICO
NATIONAL WEATHER SERVICE ALBUQUERQUE NM
1000 PM MDT FRI SEP 19 2014

NOTE: "FAIR" MEANS FEW OR NO CLOUDS BELOW 12,000 FEET AGL WITH NO
       SIGNIFICANT WEATHER OR OBSTRUCTIONS TO VISION.

      THIS PRODUCT IS RELEASED AS TWO VERSIONS.  ONE VERSION NEAR
      THE TOP OF THE HOUR CONTAINING PRELIMINARY DATA FROM ALBUQUERQUE
      AND OTHER STATIONS.  A FINAL VERSION WITH ADDITIONAL DATA IS
      ISSUED ABOUT 10 MINUTES AFTER THE HOUR.

NMZ501-503-504-510>518-200500-
NORTHWEST PLATEAU/NORTHCENTRAL MOUNTAINS

CITY           SKY/WX    TMP DP  RH WIND       PRES   REMARKS
FARMINGTON     CLEAR     73  44  35 S3        30.04R
LOS ALAMOS     PTCLDY    64  53  66 S9        30.21R
SANTA FE       CLEAR     67  55  65 SE14      30.15R
TAOS           CLEAR     63  45  51 E8        30.19R
ANGEL FIRE     FAIR      54  49  82 SE6       30.31R

$$
NMZ402-403-502-505>509-200500-
WESTCENTRAL MOUNTAINS/SOUTHWEST MOUNTAINS

CITY           SKY/WX    TMP DP  RH WIND       PRES   REMARKS
GALLUP         PTCLDY    61  41  47 S3        30.15R
GRANTS         CLEAR     61  46  59 SW5       30.17R
SILVER CITY    PTCLDY    68  63  83 NW7       30.12R

$$
NMZ407-409-411-412-200500-
SOUTHERN DESERTS

CITY           SKY/WX    TMP DP  RH WIND       PRES   REMARKS
LORDSBURG      FAIR      70  64  83 MISG      30.03R
DEMING         CLEAR     71  65  81 W6        30.02R
LAS CRUCES     CLEAR     70  65  83 W5        30.03S
HOLLOMAN AFB   CLEAR     70  66  85 N2        30.00R
ALAMOGORDO     CLEAR     68  66  94 NW3       30.02R
T OR C         CLEAR     73  62  68 CALM      30.03S

$$
NMZ519>523-200500-
CENTRAL VALLEYS/CENTRAL HIGHLANDS

CITY           SKY/WX    TMP DP  RH WIND       PRES   REMARKS
ALBUQUERQUE    PTCLDY    71  56  58 SE5       30.08R
DOUBLE EAGLE   CLEAR     68  55  64 S8        30.12R
MORIARTY ARPT  FAIR      61  56  85 S3        30.18R
CLINES CORNERS CLEAR     58  56  93 E6        30.20R
BELEN          FAIR      69  59  69 SE9       30.07R
SOCORRO        FAIR      69  63  81 SW5       30.06R

$$
NMZ524>526-539-540-200500-
SOUTHCENTRAL MOUNTAINS

CITY           SKY/WX    TMP DP  RH WIND       PRES   REMARKS
RUIDOSO        NOT AVBL

$$
NMZ527>531-200500-
NORTHEAST HIGHLANDS/NORTHEAST PLAINS

CITY           SKY/WX    TMP DP  RH WIND       PRES   REMARKS
LAS VEGAS      CLEAR     59  56  89 S12       30.20S
RATON          CLEAR     62  56  80 SW5       30.15R
CLAYTON        CLOUDY    64  60  87 S10       30.08R

$$
NMZ532>537-200500-
EASTCENTRAL PLAINS

CITY           SKY/WX    TMP DP  RH WIND       PRES   REMARKS
TUCUMCARI      CLEAR     68  62  81 S8        30.04R
CANNON AFB     CLOUDY    66 N/A N/A SE9       30.08R
CLOVIS AIRPORT   N/A     64  63  94 S6        30.10R

$$
NMZ028-029-538-200500-
SOUTHEAST PLAINS

CITY           SKY/WX    TMP DP  RH WIND       PRES   REMARKS
ROSWELL        CLOUDY    69  66  90 CALM      30.02S
CARLSBAD       CLOUDY    71  32  23 N5        29.99R
HOBBS          CLOUDY    68  68 100 E8        30.05R FOG


$$



USA.gov is the U.S. government's official web portal to all federal, state and local government web resources and services.